Netzbetreibername:;;Stadtwerke Schneeberg GmbH;
;;;
Netz-oder Umspannebene:;;;
;;;
Lastgangtyp:;Restlastkurve;;
;;;
gesetzliche Grundlage: ;;� 17 Abs. 2 Nr. 4 StromNZV;
;;;
Einheit:;;kW;
;;;
Betrachtungszeitraum:;;01.01.2021 bis 31.12.2021;
;;;
;;;
;;;
;;;
Datum;Zeit;;Wert
;;;
01.01.2021;00:15;;5.264
01.01.2021;00:30;;5.029
01.01.2021;00:45;;4.834
01.01.2021;01:00;;4.545
01.01.2021;01:15;;4.248
01.01.2021;01:30;;3.979
01.01.2021;01:45;;3.786
01.01.2021;02:00;;3.553
01.01.2021;02:15;;3.391
01.01.2021;02:30;;3.294
01.01.2021;02:45;;3.173
01.01.2021;03:00;;2.977
01.01.2021;03:15;;2.865
01.01.2021;03:30;;2.732
01.01.2021;03:45;;2.669
01.01.2021;04:00;;2.568
01.01.2021;04:15;;2.564
01.01.2021;04:30;;2.548
01.01.2021;04:45;;2.496
01.01.2021;05:00;;2.500
01.01.2021;05:15;;2.527
01.01.2021;05:30;;2.514
01.01.2021;05:45;;2.560
01.01.2021;06:00;;2.809
01.01.2021;06:15;;3.113
01.01.2021;06:30;;3.808
01.01.2021;06:45;;3.785
01.01.2021;07:00;;3.781
01.01.2021;07:15;;3.891
01.01.2021;07:30;;3.927
01.01.2021;07:45;;4.033
01.01.2021;08:00;;4.107
01.01.2021;08:15;;4.392
01.01.2021;08:30;;4.531
01.01.2021;08:45;;4.725
01.01.2021;09:00;;4.952
01.01.2021;09:15;;5.150
01.01.2021;09:30;;5.398
01.01.2021;09:45;;5.561
01.01.2021;10:00;;5.769
01.01.2021;10:15;;5.841
01.01.2021;10:30;;6.016
01.01.2021;10:45;;6.233
01.01.2021;11:00;;6.524
01.01.2021;11:15;;6.829
01.01.2021;11:30;;7.623
01.01.2021;11:45;;7.905
01.01.2021;12:00;;7.940
01.01.2021;12:15;;7.581
01.01.2021;12:30;;7.336
01.01.2021;12:45;;6.797
01.01.2021;13:00;;6.594
01.01.2021;13:15;;6.503
01.01.2021;13:30;;6.251
01.01.2021;13:45;;6.012
01.01.2021;14:00;;5.918
01.01.2021;14:15;;5.934
01.01.2021;14:30;;5.896
01.01.2021;14:45;;5.869
01.01.2021;15:00;;5.858
01.01.2021;15:15;;5.962
01.01.2021;15:30;;5.931
01.01.2021;15:45;;6.061
01.01.2021;16:00;;5.903
01.01.2021;16:15;;6.281
01.01.2021;16:30;;6.957
01.01.2021;16:45;;7.615
01.01.2021;17:00;;7.988
01.01.2021;17:15;;8.237
01.01.2021;17:30;;8.629
01.01.2021;17:45;;9.151
01.01.2021;18:00;;9.141
01.01.2021;18:15;;9.114
01.01.2021;18:30;;9.064
01.01.2021;18:45;;8.962
01.01.2021;19:00;;8.886
01.01.2021;19:15;;8.567
01.01.2021;19:30;;8.359
01.01.2021;19:45;;8.192
01.01.2021;20:00;;8.088
01.01.2021;20:15;;7.934
01.01.2021;20:30;;7.718
01.01.2021;20:45;;7.674
01.01.2021;21:00;;7.509
01.01.2021;21:15;;7.383
01.01.2021;21:30;;7.275
01.01.2021;21:45;;7.171
01.01.2021;22:00;;6.632
01.01.2021;22:15;;5.985
01.01.2021;22:30;;5.480
01.01.2021;22:45;;5.213
01.01.2021;23:00;;5.133
01.01.2021;23:15;;4.814
01.01.2021;23:30;;4.618
01.01.2021;23:45;;4.326
02.01.2021;00:00;;3.996
02.01.2021;00:15;;3.611
02.01.2021;00:30;;3.340
02.01.2021;00:45;;3.139
02.01.2021;01:00;;2.937
02.01.2021;01:15;;2.806
02.01.2021;01:30;;2.725
02.01.2021;01:45;;2.589
02.01.2021;02:00;;2.517
02.01.2021;02:15;;2.522
02.01.2021;02:30;;2.500
02.01.2021;02:45;;2.464
02.01.2021;03:00;;2.372
02.01.2021;03:15;;2.384
02.01.2021;03:30;;2.326
02.01.2021;03:45;;2.287
02.01.2021;04:00;;2.173
02.01.2021;04:15;;2.266
02.01.2021;04:30;;2.299
02.01.2021;04:45;;2.281
02.01.2021;05:00;;2.346
02.01.2021;05:15;;2.400
02.01.2021;05:30;;2.460
02.01.2021;05:45;;2.448
02.01.2021;06:00;;2.758
02.01.2021;06:15;;3.115
02.01.2021;06:30;;3.911
02.01.2021;06:45;;4.010
02.01.2021;07:00;;4.078
02.01.2021;07:15;;4.285
02.01.2021;07:30;;4.527
02.01.2021;07:45;;4.699
02.01.2021;08:00;;4.922
02.01.2021;08:15;;5.405
02.01.2021;08:30;;5.521
02.01.2021;08:45;;5.791
02.01.2021;09:00;;5.968
02.01.2021;09:15;;6.057
02.01.2021;09:30;;6.086
02.01.2021;09:45;;6.218
02.01.2021;10:00;;6.397
02.01.2021;10:15;;6.585
02.01.2021;10:30;;6.673
02.01.2021;10:45;;6.891
02.01.2021;11:00;;7.087
02.01.2021;11:15;;7.367
02.01.2021;11:30;;8.105
02.01.2021;11:45;;8.463
02.01.2021;12:00;;8.545
02.01.2021;12:15;;8.354
02.01.2021;12:30;;7.746
02.01.2021;12:45;;7.466
02.01.2021;13:00;;7.173
02.01.2021;13:15;;6.837
02.01.2021;13:30;;6.667
02.01.2021;13:45;;6.694
02.01.2021;14:00;;6.569
02.01.2021;14:15;;6.348
02.01.2021;14:30;;6.277
02.01.2021;14:45;;6.273
02.01.2021;15:00;;6.315
02.01.2021;15:15;;6.417
02.01.2021;15:30;;6.459
02.01.2021;15:45;;6.548
02.01.2021;16:00;;6.391
02.01.2021;16:15;;6.821
02.01.2021;16:30;;7.248
02.01.2021;16:45;;7.803
02.01.2021;17:00;;8.200
02.01.2021;17:15;;8.406
02.01.2021;17:30;;8.719
02.01.2021;17:45;;9.430
02.01.2021;18:00;;9.475
02.01.2021;18:15;;9.583
02.01.2021;18:30;;9.516
02.01.2021;18:45;;9.314
02.01.2021;19:00;;9.358
02.01.2021;19:15;;8.852
02.01.2021;19:30;;8.685
02.01.2021;19:45;;8.504
02.01.2021;20:00;;8.383
02.01.2021;20:15;;8.156
02.01.2021;20:30;;8.003
02.01.2021;20:45;;7.821
02.01.2021;21:00;;7.649
02.01.2021;21:15;;7.508
02.01.2021;21:30;;7.262
02.01.2021;21:45;;7.218
02.01.2021;22:00;;6.711
02.01.2021;22:15;;6.117
02.01.2021;22:30;;5.736
02.01.2021;22:45;;5.491
02.01.2021;23:00;;5.367
02.01.2021;23:15;;5.007
02.01.2021;23:30;;4.806
02.01.2021;23:45;;4.517
03.01.2021;00:00;;4.212
03.01.2021;00:15;;3.944
03.01.2021;00:30;;3.607
03.01.2021;00:45;;3.375
03.01.2021;01:00;;3.134
03.01.2021;01:15;;2.946
03.01.2021;01:30;;2.808
03.01.2021;01:45;;2.709
03.01.2021;02:00;;2.634
03.01.2021;02:15;;2.602
03.01.2021;02:30;;2.558
03.01.2021;02:45;;2.596
03.01.2021;03:00;;2.555
03.01.2021;03:15;;2.493
03.01.2021;03:30;;2.462
03.01.2021;03:45;;2.419
03.01.2021;04:00;;2.374
03.01.2021;04:15;;2.369
03.01.2021;04:30;;2.290
03.01.2021;04:45;;2.293
03.01.2021;05:00;;2.281
03.01.2021;05:15;;2.336
03.01.2021;05:30;;2.345
03.01.2021;05:45;;2.476
03.01.2021;06:00;;2.823
03.01.2021;06:15;;3.082
03.01.2021;06:30;;3.803
03.01.2021;06:45;;3.908
03.01.2021;07:00;;4.046
03.01.2021;07:15;;4.219
03.01.2021;07:30;;4.372
03.01.2021;07:45;;4.602
03.01.2021;08:00;;4.913
03.01.2021;08:15;;5.344
03.01.2021;08:30;;5.631
03.01.2021;08:45;;5.841
03.01.2021;09:00;;6.008
03.01.2021;09:15;;6.167
03.01.2021;09:30;;6.316
03.01.2021;09:45;;6.534
03.01.2021;10:00;;6.532
03.01.2021;10:15;;6.725
03.01.2021;10:30;;6.828
03.01.2021;10:45;;7.060
03.01.2021;11:00;;7.385
03.01.2021;11:15;;7.846
03.01.2021;11:30;;8.774
03.01.2021;11:45;;9.113
03.01.2021;12:00;;9.154
03.01.2021;12:15;;8.584
03.01.2021;12:30;;7.885
03.01.2021;12:45;;7.485
03.01.2021;13:00;;7.149
03.01.2021;13:15;;6.854
03.01.2021;13:30;;6.632
03.01.2021;13:45;;6.564
03.01.2021;14:00;;6.337
03.01.2021;14:15;;6.195
03.01.2021;14:30;;6.159
03.01.2021;14:45;;6.240
03.01.2021;15:00;;6.093
03.01.2021;15:15;;6.080
03.01.2021;15:30;;6.054
03.01.2021;15:45;;6.212
03.01.2021;16:00;;6.115
03.01.2021;16:15;;6.566
03.01.2021;16:30;;7.003
03.01.2021;16:45;;7.658
03.01.2021;17:00;;8.112
03.01.2021;17:15;;8.458
03.01.2021;17:30;;8.787
03.01.2021;17:45;;9.266
03.01.2021;18:00;;9.313
03.01.2021;18:15;;9.414
03.01.2021;18:30;;9.461
03.01.2021;18:45;;9.256
03.01.2021;19:00;;9.194
03.01.2021;19:15;;8.628
03.01.2021;19:30;;8.358
03.01.2021;19:45;;8.232
03.01.2021;20:00;;8.078
03.01.2021;20:15;;8.071
03.01.2021;20:30;;7.919
03.01.2021;20:45;;7.626
03.01.2021;21:00;;7.455
03.01.2021;21:15;;7.260
03.01.2021;21:30;;7.158
03.01.2021;21:45;;7.091
03.01.2021;22:00;;6.495
03.01.2021;22:15;;5.785
03.01.2021;22:30;;5.280
03.01.2021;22:45;;5.060
03.01.2021;23:00;;4.930
03.01.2021;23:15;;4.593
03.01.2021;23:30;;4.369
03.01.2021;23:45;;4.166
04.01.2021;00:00;;3.868
04.01.2021;00:15;;3.413
04.01.2021;00:30;;3.104
04.01.2021;00:45;;2.863
04.01.2021;01:00;;2.678
04.01.2021;01:15;;2.570
04.01.2021;01:30;;2.441
04.01.2021;01:45;;2.375
04.01.2021;02:00;;2.362
04.01.2021;02:15;;2.305
04.01.2021;02:30;;2.336
04.01.2021;02:45;;2.358
04.01.2021;03:00;;2.294
04.01.2021;03:15;;2.378
04.01.2021;03:30;;2.432
04.01.2021;03:45;;2.430
04.01.2021;04:00;;2.401
04.01.2021;04:15;;2.502
04.01.2021;04:30;;2.594
04.01.2021;04:45;;2.695
04.01.2021;05:00;;2.709
04.01.2021;05:15;;2.896
04.01.2021;05:30;;2.911
04.01.2021;05:45;;2.950
04.01.2021;06:00;;3.332
04.01.2021;06:15;;3.928
04.01.2021;06:30;;4.761
04.01.2021;06:45;;4.875
04.01.2021;07:00;;4.966
04.01.2021;07:15;;5.348
04.01.2021;07:30;;5.531
04.01.2021;07:45;;5.610
04.01.2021;08:00;;6.082
04.01.2021;08:15;;6.158
04.01.2021;08:30;;6.203
04.01.2021;08:45;;6.285
04.01.2021;09:00;;6.426
04.01.2021;09:15;;6.548
04.01.2021;09:30;;6.520
04.01.2021;09:45;;6.588
04.01.2021;10:00;;6.594
04.01.2021;10:15;;6.740
04.01.2021;10:30;;6.822
04.01.2021;10:45;;6.736
04.01.2021;11:00;;6.884
04.01.2021;11:15;;6.850
04.01.2021;11:30;;7.572
04.01.2021;11:45;;7.803
04.01.2021;12:00;;7.997
04.01.2021;12:15;;8.059
04.01.2021;12:30;;7.519
04.01.2021;12:45;;7.324
04.01.2021;13:00;;7.060
04.01.2021;13:15;;6.686
04.01.2021;13:30;;6.469
04.01.2021;13:45;;6.455
04.01.2021;14:00;;6.408
04.01.2021;14:15;;6.368
04.01.2021;14:30;;6.386
04.01.2021;14:45;;6.408
04.01.2021;15:00;;6.408
04.01.2021;15:15;;6.471
04.01.2021;15:30;;6.461
04.01.2021;15:45;;6.503
04.01.2021;16:00;;6.610
04.01.2021;16:15;;6.822
04.01.2021;16:30;;7.352
04.01.2021;16:45;;8.042
04.01.2021;17:00;;8.532
04.01.2021;17:15;;8.773
04.01.2021;17:30;;8.907
04.01.2021;17:45;;9.377
04.01.2021;18:00;;9.409
04.01.2021;18:15;;9.444
04.01.2021;18:30;;9.378
04.01.2021;18:45;;9.263
04.01.2021;19:00;;9.237
04.01.2021;19:15;;8.753
04.01.2021;19:30;;8.554
04.01.2021;19:45;;8.473
04.01.2021;20:00;;8.294
04.01.2021;20:15;;8.081
04.01.2021;20:30;;7.848
04.01.2021;20:45;;7.610
04.01.2021;21:00;;7.450
04.01.2021;21:15;;7.255
04.01.2021;21:30;;7.175
04.01.2021;21:45;;7.151
04.01.2021;22:00;;6.538
04.01.2021;22:15;;5.863
04.01.2021;22:30;;5.332
04.01.2021;22:45;;5.070
04.01.2021;23:00;;4.890
04.01.2021;23:15;;4.498
04.01.2021;23:30;;4.217
04.01.2021;23:45;;4.062
05.01.2021;00:00;;3.699
05.01.2021;00:15;;3.503
05.01.2021;00:30;;3.300
05.01.2021;00:45;;3.057
05.01.2021;01:00;;2.846
05.01.2021;01:15;;2.717
05.01.2021;01:30;;2.584
05.01.2021;01:45;;2.463
05.01.2021;02:00;;2.389
05.01.2021;02:15;;2.438
05.01.2021;02:30;;2.460
05.01.2021;02:45;;2.473
05.01.2021;03:00;;2.365
05.01.2021;03:15;;2.466
05.01.2021;03:30;;2.450
05.01.2021;03:45;;2.492
05.01.2021;04:00;;2.495
05.01.2021;04:15;;2.576
05.01.2021;04:30;;2.764
05.01.2021;04:45;;2.755
05.01.2021;05:00;;2.743
05.01.2021;05:15;;3.014
05.01.2021;05:30;;3.099
05.01.2021;05:45;;3.151
05.01.2021;06:00;;3.454
05.01.2021;06:15;;4.046
05.01.2021;06:30;;4.847
05.01.2021;06:45;;5.026
05.01.2021;07:00;;5.292
05.01.2021;07:15;;5.622
05.01.2021;07:30;;5.687
05.01.2021;07:45;;5.792
05.01.2021;08:00;;6.219
05.01.2021;08:15;;6.257
05.01.2021;08:30;;6.245
05.01.2021;08:45;;6.277
05.01.2021;09:00;;6.425
05.01.2021;09:15;;6.566
05.01.2021;09:30;;6.592
05.01.2021;09:45;;6.661
05.01.2021;10:00;;6.612
05.01.2021;10:15;;6.774
05.01.2021;10:30;;6.946
05.01.2021;10:45;;6.852
05.01.2021;11:00;;6.804
05.01.2021;11:15;;6.993
05.01.2021;11:30;;7.614
05.01.2021;11:45;;7.835
05.01.2021;12:00;;8.021
05.01.2021;12:15;;8.010
05.01.2021;12:30;;7.454
05.01.2021;12:45;;7.147
05.01.2021;13:00;;6.917
05.01.2021;13:15;;6.736
05.01.2021;13:30;;6.601
05.01.2021;13:45;;6.438
05.01.2021;14:00;;6.474
05.01.2021;14:15;;6.428
05.01.2021;14:30;;6.411
05.01.2021;14:45;;6.317
05.01.2021;15:00;;6.243
05.01.2021;15:15;;6.246
05.01.2021;15:30;;6.345
05.01.2021;15:45;;6.462
05.01.2021;16:00;;6.565
05.01.2021;16:15;;6.821
05.01.2021;16:30;;7.299
05.01.2021;16:45;;7.897
05.01.2021;17:00;;8.350
05.01.2021;17:15;;8.602
05.01.2021;17:30;;8.882
05.01.2021;17:45;;9.514
05.01.2021;18:00;;9.590
05.01.2021;18:15;;9.562
05.01.2021;18:30;;9.527
05.01.2021;18:45;;9.444
05.01.2021;19:00;;9.353
05.01.2021;19:15;;8.923
05.01.2021;19:30;;8.861
05.01.2021;19:45;;8.639
05.01.2021;20:00;;8.360
05.01.2021;20:15;;8.199
05.01.2021;20:30;;7.988
05.01.2021;20:45;;7.806
05.01.2021;21:00;;7.623
05.01.2021;21:15;;7.408
05.01.2021;21:30;;7.276
05.01.2021;21:45;;7.191
05.01.2021;22:00;;6.593
05.01.2021;22:15;;5.955
05.01.2021;22:30;;5.458
05.01.2021;22:45;;5.103
05.01.2021;23:00;;4.975
05.01.2021;23:15;;4.661
05.01.2021;23:30;;4.346
05.01.2021;23:45;;4.174
06.01.2021;00:00;;3.845
06.01.2021;00:15;;3.661
06.01.2021;00:30;;3.369
06.01.2021;00:45;;3.111
06.01.2021;01:00;;2.955
06.01.2021;01:15;;2.815
06.01.2021;01:30;;2.738
06.01.2021;01:45;;2.666
06.01.2021;02:00;;2.649
06.01.2021;02:15;;2.604
06.01.2021;02:30;;2.591
06.01.2021;02:45;;2.597
06.01.2021;03:00;;2.580
06.01.2021;03:15;;2.602
06.01.2021;03:30;;2.573
06.01.2021;03:45;;2.540
06.01.2021;04:00;;2.577
06.01.2021;04:15;;2.700
06.01.2021;04:30;;2.769
06.01.2021;04:45;;2.775
06.01.2021;05:00;;2.909
06.01.2021;05:15;;3.133
06.01.2021;05:30;;3.200
06.01.2021;05:45;;3.204
06.01.2021;06:00;;3.492
06.01.2021;06:15;;3.960
06.01.2021;06:30;;4.775
06.01.2021;06:45;;5.097
06.01.2021;07:00;;5.335
06.01.2021;07:15;;5.570
06.01.2021;07:30;;5.817
06.01.2021;07:45;;5.790
06.01.2021;08:00;;6.301
06.01.2021;08:15;;6.308
06.01.2021;08:30;;6.247
06.01.2021;08:45;;6.442
06.01.2021;09:00;;6.485
06.01.2021;09:15;;6.547
06.01.2021;09:30;;6.508
06.01.2021;09:45;;6.494
06.01.2021;10:00;;6.478
06.01.2021;10:15;;6.598
06.01.2021;10:30;;6.712
06.01.2021;10:45;;6.817
06.01.2021;11:00;;6.851
06.01.2021;11:15;;6.943
06.01.2021;11:30;;7.570
06.01.2021;11:45;;7.853
06.01.2021;12:00;;8.030
06.01.2021;12:15;;8.023
06.01.2021;12:30;;7.397
06.01.2021;12:45;;7.015
06.01.2021;13:00;;6.867
06.01.2021;13:15;;6.635
06.01.2021;13:30;;6.552
06.01.2021;13:45;;6.422
06.01.2021;14:00;;6.511
06.01.2021;14:15;;6.366
06.01.2021;14:30;;6.371
06.01.2021;14:45;;6.220
06.01.2021;15:00;;6.357
06.01.2021;15:15;;6.477
06.01.2021;15:30;;6.479
06.01.2021;15:45;;6.587
06.01.2021;16:00;;6.738
06.01.2021;16:15;;6.923
06.01.2021;16:30;;7.417
06.01.2021;16:45;;8.076
06.01.2021;17:00;;8.617
06.01.2021;17:15;;9.058
06.01.2021;17:30;;9.315
06.01.2021;17:45;;9.813
06.01.2021;18:00;;9.946
06.01.2021;18:15;;9.657
06.01.2021;18:30;;9.470
06.01.2021;18:45;;9.295
06.01.2021;19:00;;9.357
06.01.2021;19:15;;8.783
06.01.2021;19:30;;8.726
06.01.2021;19:45;;8.521
06.01.2021;20:00;;8.315
06.01.2021;20:15;;8.218
06.01.2021;20:30;;7.981
06.01.2021;20:45;;7.752
06.01.2021;21:00;;7.569
06.01.2021;21:15;;7.417
06.01.2021;21:30;;7.227
06.01.2021;21:45;;7.223
06.01.2021;22:00;;6.604
06.01.2021;22:15;;5.915
06.01.2021;22:30;;5.397
06.01.2021;22:45;;5.163
06.01.2021;23:00;;4.960
06.01.2021;23:15;;4.585
06.01.2021;23:30;;4.328
06.01.2021;23:45;;4.147
07.01.2021;00:00;;3.857
07.01.2021;00:15;;3.506
07.01.2021;00:30;;3.301
07.01.2021;00:45;;3.125
07.01.2021;01:00;;2.919
07.01.2021;01:15;;2.743
07.01.2021;01:30;;2.640
07.01.2021;01:45;;2.581
07.01.2021;02:00;;2.520
07.01.2021;02:15;;2.501
07.01.2021;02:30;;2.443
07.01.2021;02:45;;2.462
07.01.2021;03:00;;2.390
07.01.2021;03:15;;2.530
07.01.2021;03:30;;2.505
07.01.2021;03:45;;2.548
07.01.2021;04:00;;2.526
07.01.2021;04:15;;2.610
07.01.2021;04:30;;2.696
07.01.2021;04:45;;2.745
07.01.2021;05:00;;2.820
07.01.2021;05:15;;2.987
07.01.2021;05:30;;3.030
07.01.2021;05:45;;3.048
07.01.2021;06:00;;3.406
07.01.2021;06:15;;3.973
07.01.2021;06:30;;4.794
07.01.2021;06:45;;4.998
07.01.2021;07:00;;5.208
07.01.2021;07:15;;5.517
07.01.2021;07:30;;5.701
07.01.2021;07:45;;5.873
07.01.2021;08:00;;6.220
07.01.2021;08:15;;6.391
07.01.2021;08:30;;6.422
07.01.2021;08:45;;6.412
07.01.2021;09:00;;6.535
07.01.2021;09:15;;6.507
07.01.2021;09:30;;6.382
07.01.2021;09:45;;6.456
07.01.2021;10:00;;6.474
07.01.2021;10:15;;6.499
07.01.2021;10:30;;6.551
07.01.2021;10:45;;6.605
07.01.2021;11:00;;6.627
07.01.2021;11:15;;6.805
07.01.2021;11:30;;7.448
07.01.2021;11:45;;7.694
07.01.2021;12:00;;7.686
07.01.2021;12:15;;7.684
07.01.2021;12:30;;7.220
07.01.2021;12:45;;6.941
07.01.2021;13:00;;6.657
07.01.2021;13:15;;6.429
07.01.2021;13:30;;6.424
07.01.2021;13:45;;6.410
07.01.2021;14:00;;6.309
07.01.2021;14:15;;6.316
07.01.2021;14:30;;6.235
07.01.2021;14:45;;6.177
07.01.2021;15:00;;6.253
07.01.2021;15:15;;6.342
07.01.2021;15:30;;6.249
07.01.2021;15:45;;6.235
07.01.2021;16:00;;6.335
07.01.2021;16:15;;6.427
07.01.2021;16:30;;6.867
07.01.2021;16:45;;7.301
07.01.2021;17:00;;7.952
07.01.2021;17:15;;8.437
07.01.2021;17:30;;8.564
07.01.2021;17:45;;9.149
07.01.2021;18:00;;9.093
07.01.2021;18:15;;9.141
07.01.2021;18:30;;9.074
07.01.2021;18:45;;9.066
07.01.2021;19:00;;9.013
07.01.2021;19:15;;8.486
07.01.2021;19:30;;8.416
07.01.2021;19:45;;8.118
07.01.2021;20:00;;8.018
07.01.2021;20:15;;7.840
07.01.2021;20:30;;7.586
07.01.2021;20:45;;7.385
07.01.2021;21:00;;7.259
07.01.2021;21:15;;6.986
07.01.2021;21:30;;6.785
07.01.2021;21:45;;6.786
07.01.2021;22:00;;6.209
07.01.2021;22:15;;5.653
07.01.2021;22:30;;5.182
07.01.2021;22:45;;4.904
07.01.2021;23:00;;4.802
07.01.2021;23:15;;4.457
07.01.2021;23:30;;4.245
07.01.2021;23:45;;3.990
08.01.2021;00:00;;3.843
08.01.2021;00:15;;3.652
08.01.2021;00:30;;3.345
08.01.2021;00:45;;3.150
08.01.2021;01:00;;2.969
08.01.2021;01:15;;2.838
08.01.2021;01:30;;2.691
08.01.2021;01:45;;2.688
08.01.2021;02:00;;2.667
08.01.2021;02:15;;2.656
08.01.2021;02:30;;2.633
08.01.2021;02:45;;2.622
08.01.2021;03:00;;2.638
08.01.2021;03:15;;2.670
08.01.2021;03:30;;2.671
08.01.2021;03:45;;2.630
08.01.2021;04:00;;2.627
08.01.2021;04:15;;2.699
08.01.2021;04:30;;2.785
08.01.2021;04:45;;2.868
08.01.2021;05:00;;2.927
08.01.2021;05:15;;3.069
08.01.2021;05:30;;3.111
08.01.2021;05:45;;3.169
08.01.2021;06:00;;3.518
08.01.2021;06:15;;4.046
08.01.2021;06:30;;4.854
08.01.2021;06:45;;5.008
08.01.2021;07:00;;5.269
08.01.2021;07:15;;5.548
08.01.2021;07:30;;5.807
08.01.2021;07:45;;5.905
08.01.2021;08:00;;6.374
08.01.2021;08:15;;6.389
08.01.2021;08:30;;6.386
08.01.2021;08:45;;6.451
08.01.2021;09:00;;6.522
08.01.2021;09:15;;6.718
08.01.2021;09:30;;6.691
08.01.2021;09:45;;6.607
08.01.2021;10:00;;6.671
08.01.2021;10:15;;6.704
08.01.2021;10:30;;6.770
08.01.2021;10:45;;6.856
08.01.2021;11:00;;6.884
08.01.2021;11:15;;7.039
08.01.2021;11:30;;7.832
08.01.2021;11:45;;8.039
08.01.2021;12:00;;8.026
08.01.2021;12:15;;8.090
08.01.2021;12:30;;7.586
08.01.2021;12:45;;7.191
08.01.2021;13:00;;6.940
08.01.2021;13:15;;6.700
08.01.2021;13:30;;6.530
08.01.2021;13:45;;6.375
08.01.2021;14:00;;6.379
08.01.2021;14:15;;6.383
08.01.2021;14:30;;6.369
08.01.2021;14:45;;6.475
08.01.2021;15:00;;6.373
08.01.2021;15:15;;6.360
08.01.2021;15:30;;6.389
08.01.2021;15:45;;6.560
08.01.2021;16:00;;6.517
08.01.2021;16:15;;6.683
08.01.2021;16:30;;6.985
08.01.2021;16:45;;7.444
08.01.2021;17:00;;7.902
08.01.2021;17:15;;8.212
08.01.2021;17:30;;8.404
08.01.2021;17:45;;8.902
08.01.2021;18:00;;8.966
08.01.2021;18:15;;8.976
08.01.2021;18:30;;9.039
08.01.2021;18:45;;9.021
08.01.2021;19:00;;8.992
08.01.2021;19:15;;8.574
08.01.2021;19:30;;8.359
08.01.2021;19:45;;8.114
08.01.2021;20:00;;8.009
08.01.2021;20:15;;7.838
08.01.2021;20:30;;7.592
08.01.2021;20:45;;7.356
08.01.2021;21:00;;7.084
08.01.2021;21:15;;6.876
08.01.2021;21:30;;6.882
08.01.2021;21:45;;6.849
08.01.2021;22:00;;6.274
08.01.2021;22:15;;5.777
08.01.2021;22:30;;5.361
08.01.2021;22:45;;5.143
08.01.2021;23:00;;5.093
08.01.2021;23:15;;4.770
08.01.2021;23:30;;4.553
08.01.2021;23:45;;4.352
09.01.2021;00:00;;4.086
09.01.2021;00:15;;3.808
09.01.2021;00:30;;3.478
09.01.2021;00:45;;3.190
09.01.2021;01:00;;3.017
09.01.2021;01:15;;2.934
09.01.2021;01:30;;2.826
09.01.2021;01:45;;2.651
09.01.2021;02:00;;2.611
09.01.2021;02:15;;2.591
09.01.2021;02:30;;2.535
09.01.2021;02:45;;2.547
09.01.2021;03:00;;2.527
09.01.2021;03:15;;2.485
09.01.2021;03:30;;2.487
09.01.2021;03:45;;2.492
09.01.2021;04:00;;2.514
09.01.2021;04:15;;2.487
09.01.2021;04:30;;2.557
09.01.2021;04:45;;2.561
09.01.2021;05:00;;2.608
09.01.2021;05:15;;2.718
09.01.2021;05:30;;2.727
09.01.2021;05:45;;2.709
09.01.2021;06:00;;2.947
09.01.2021;06:15;;3.348
09.01.2021;06:30;;4.166
09.01.2021;06:45;;4.249
09.01.2021;07:00;;4.351
09.01.2021;07:15;;4.571
09.01.2021;07:30;;4.817
09.01.2021;07:45;;5.129
09.01.2021;08:00;;5.561
09.01.2021;08:15;;5.694
09.01.2021;08:30;;5.961
09.01.2021;08:45;;6.139
09.01.2021;09:00;;6.406
09.01.2021;09:15;;6.524
09.01.2021;09:30;;6.659
09.01.2021;09:45;;6.824
09.01.2021;10:00;;6.996
09.01.2021;10:15;;6.982
09.01.2021;10:30;;7.059
09.01.2021;10:45;;7.013
09.01.2021;11:00;;7.303
09.01.2021;11:15;;7.689
09.01.2021;11:30;;8.433
09.01.2021;11:45;;8.669
09.01.2021;12:00;;8.789
09.01.2021;12:15;;8.582
09.01.2021;12:30;;7.918
09.01.2021;12:45;;7.518
09.01.2021;13:00;;7.264
09.01.2021;13:15;;7.039
09.01.2021;13:30;;6.775
09.01.2021;13:45;;6.615
09.01.2021;14:00;;6.611
09.01.2021;14:15;;6.568
09.01.2021;14:30;;6.432
09.01.2021;14:45;;6.481
09.01.2021;15:00;;6.454
09.01.2021;15:15;;6.466
09.01.2021;15:30;;6.419
09.01.2021;15:45;;6.550
09.01.2021;16:00;;6.506
09.01.2021;16:15;;6.595
09.01.2021;16:30;;6.911
09.01.2021;16:45;;7.446
09.01.2021;17:00;;7.964
09.01.2021;17:15;;8.286
09.01.2021;17:30;;8.562
09.01.2021;17:45;;9.069
09.01.2021;18:00;;9.269
09.01.2021;18:15;;9.431
09.01.2021;18:30;;9.356
09.01.2021;18:45;;9.149
09.01.2021;19:00;;9.018
09.01.2021;19:15;;8.361
09.01.2021;19:30;;8.283
09.01.2021;19:45;;8.107
09.01.2021;20:00;;7.815
09.01.2021;20:15;;7.747
09.01.2021;20:30;;7.504
09.01.2021;20:45;;7.182
09.01.2021;21:00;;7.093
09.01.2021;21:15;;6.977
09.01.2021;21:30;;6.870
09.01.2021;21:45;;6.878
09.01.2021;22:00;;6.315
09.01.2021;22:15;;5.820
09.01.2021;22:30;;5.394
09.01.2021;22:45;;5.190
09.01.2021;23:00;;5.142
09.01.2021;23:15;;4.862
09.01.2021;23:30;;4.625
09.01.2021;23:45;;4.369
10.01.2021;00:00;;4.139
10.01.2021;00:15;;3.706
10.01.2021;00:30;;3.413
10.01.2021;00:45;;3.160
10.01.2021;01:00;;3.042
10.01.2021;01:15;;2.806
10.01.2021;01:30;;2.642
10.01.2021;01:45;;2.532
10.01.2021;02:00;;2.518
10.01.2021;02:15;;2.456
10.01.2021;02:30;;2.408
10.01.2021;02:45;;2.424
10.01.2021;03:00;;2.408
10.01.2021;03:15;;2.433
10.01.2021;03:30;;2.388
10.01.2021;03:45;;2.324
10.01.2021;04:00;;2.279
10.01.2021;04:15;;2.296
10.01.2021;04:30;;2.287
10.01.2021;04:45;;2.342
10.01.2021;05:00;;2.353
10.01.2021;05:15;;2.428
10.01.2021;05:30;;2.436
10.01.2021;05:45;;2.405
10.01.2021;06:00;;2.664
10.01.2021;06:15;;3.102
10.01.2021;06:30;;3.752
10.01.2021;06:45;;3.843
10.01.2021;07:00;;3.949
10.01.2021;07:15;;4.143
10.01.2021;07:30;;4.382
10.01.2021;07:45;;4.672
10.01.2021;08:00;;5.130
10.01.2021;08:15;;5.410
10.01.2021;08:30;;5.741
10.01.2021;08:45;;6.133
10.01.2021;09:00;;6.326
10.01.2021;09:15;;6.469
10.01.2021;09:30;;6.587
10.01.2021;09:45;;6.743
10.01.2021;10:00;;6.842
10.01.2021;10:15;;6.911
10.01.2021;10:30;;7.300
10.01.2021;10:45;;7.521
10.01.2021;11:00;;7.764
10.01.2021;11:15;;8.090
10.01.2021;11:30;;9.060
10.01.2021;11:45;;9.396
10.01.2021;12:00;;9.261
10.01.2021;12:15;;8.724
10.01.2021;12:30;;7.687
10.01.2021;12:45;;7.154
10.01.2021;13:00;;6.811
10.01.2021;13:15;;6.566
10.01.2021;13:30;;6.271
10.01.2021;13:45;;6.025
10.01.2021;14:00;;5.796
10.01.2021;14:15;;5.751
10.01.2021;14:30;;5.700
10.01.2021;14:45;;5.799
10.01.2021;15:00;;5.795
10.01.2021;15:15;;5.763
10.01.2021;15:30;;5.849
10.01.2021;15:45;;5.983
10.01.2021;16:00;;6.063
10.01.2021;16:15;;6.010
10.01.2021;16:30;;6.250
10.01.2021;16:45;;6.648
10.01.2021;17:00;;7.300
10.01.2021;17:15;;7.783
10.01.2021;17:30;;8.135
10.01.2021;17:45;;8.861
10.01.2021;18:00;;9.013
10.01.2021;18:15;;8.934
10.01.2021;18:30;;9.009
10.01.2021;18:45;;8.862
10.01.2021;19:00;;8.731
10.01.2021;19:15;;8.200
10.01.2021;19:30;;7.925
10.01.2021;19:45;;7.890
10.01.2021;20:00;;7.660
10.01.2021;20:15;;7.496
10.01.2021;20:30;;7.302
10.01.2021;20:45;;7.178
10.01.2021;21:00;;6.944